MED108 LIPX-LIRF

Flight info

Callsign MED108
Flight time 0h 55m
Altitude 31000
Route ITEFE T558 LUMAV M726 GAVRA Y345 RITEB RITEB4A
Aircraft B738/M-SDE2E3FGHIRWXY/LB1

Departure

Time 2026-05-04 11:46
Airport Verona Villafranca Valerio Catullo Airport (LIPX)

Arrival

Time 2026-05-04 12:41
Airport Rome–Fiumicino Leonardo da Vinci International Airport (LIRF)
Time Latitude Longitude Altitude Speed Heading
2026-05-04 11:33 45.40325 10.90414 236 ft 0 kts 135°
2026-05-04 11:40 45.40331 10.90406 241 ft 2 kts 135°
2026-05-04 11:41 45.40343 10.90389 239 ft 2 kts 135°
2026-05-04 11:41 45.40355 10.90373 240 ft 2 kts 139°
2026-05-04 11:41 45.40368 10.90360 239 ft 2 kts 169°
2026-05-04 11:41 45.40382 10.90361 241 ft 1 kts 213°
2026-05-04 11:42 45.40387 10.90365 238 ft 0 kts 218°
2026-05-04 11:43 45.40386 10.90365 238 ft 0 kts 218°
2026-05-04 11:43 45.40358 10.90330 238 ft 11 kts 227°
2026-05-04 11:43 45.40338 10.90223 236 ft 12 kts 276°
2026-05-04 11:43 45.40369 10.90120 237 ft 11 kts 321°
2026-05-04 11:44 45.40435 10.90145 238 ft 11 kts 47°
2026-05-04 11:44 45.40489 10.90222 236 ft 11 kts 45°
2026-05-04 11:44 45.40541 10.90295 240 ft 10 kts 45°
2026-05-04 11:44 45.40581 10.90380 240 ft 10 kts 58°
2026-05-04 11:45 45.40627 10.90419 237 ft 8 kts 312°
2026-05-04 11:45 45.40603 10.90357 236 ft 8 kts 225°
2026-05-04 11:45 45.40594 10.90344 238 ft 0 kts 225°
2026-05-04 11:45 45.40589 10.90337 237 ft 13 kts 225°
2026-05-04 11:46 45.40296 10.89909 237 ft 105 kts 226°
2026-05-04 11:46 45.39604 10.88893 314 ft 173 kts 226°
2026-05-04 11:46 45.38734 10.87618 1152 ft 185 kts 226°
2026-05-04 11:46 45.37954 10.86354 2647 ft 161 kts 250°
2026-05-04 11:47 45.37669 10.84872 3800 ft 156 kts 251°
2026-05-04 11:47 45.37240 10.83293 4259 ft 190 kts 247°
2026-05-04 11:47 45.36697 10.81406 4524 ft 221 kts 247°
2026-05-04 11:47 45.36082 10.79278 4894 ft 243 kts 246°
2026-05-04 11:48 45.35390 10.76940 5355 ft 265 kts 242°
2026-05-04 11:48 45.34167 10.75024 6374 ft 265 kts 209°
2026-05-04 11:48 45.32398 10.74313 7364 ft 269 kts 181°
2026-05-04 11:48 45.30567 10.74840 8319 ft 274 kts 155°
2026-05-04 11:49 45.29046 10.76487 9286 ft 279 kts 131°
2026-05-04 11:49 45.28009 10.78845 10232 ft 285 kts 120°
2026-05-04 11:49 45.27107 10.81440 10755 ft 304 kts 118°
2026-05-04 11:49 45.26164 10.84256 11164 ft 325 kts 117°
2026-05-04 11:50 45.25184 10.87185 11981 ft 329 kts 118°
2026-05-04 11:50 45.24200 10.90095 12889 ft 331 kts 118°
2026-05-04 11:50 45.23192 10.93043 13774 ft 334 kts 118°
2026-05-04 11:50 45.22162 10.96024 14536 ft 338 kts 119°
2026-05-04 11:51 45.21113 10.99041 15238 ft 344 kts 119°
2026-05-04 11:51 45.20042 11.02110 15942 ft 350 kts 119°
2026-05-04 11:51 45.18948 11.05241 16645 ft 356 kts 119°
2026-05-04 11:51 45.17843 11.08399 17339 ft 361 kts 118°
2026-05-04 11:52 45.16712 11.11623 18038 ft 367 kts 118°
2026-05-04 11:52 45.15571 11.14879 18693 ft 372 kts 118°
2026-05-04 11:52 45.14425 11.18142 19313 ft 375 kts 118°
2026-05-04 11:52 45.13241 11.21507 19973 ft 378 kts 118°
2026-05-04 11:53 45.11940 11.24687 20579 ft 380 kts 128°
2026-05-04 11:53 45.10214 11.27589 21180 ft 381 kts 138°
2026-05-04 11:53 45.08241 11.30022 21753 ft 383 kts 142°
2026-05-04 11:53 45.06164 11.32435 22328 ft 387 kts 142°
2026-05-04 11:55 44.91262 11.49984 26159 ft 401 kts 142°
2026-05-04 11:55 44.89134 11.52496 26779 ft 399 kts 142°
2026-05-04 11:56 44.87004 11.55006 27332 ft 399 kts 142°
2026-05-04 11:56 44.84878 11.57508 27892 ft 399 kts 142°
2026-05-04 11:56 44.82654 11.59817 28467 ft 395 kts 152°
2026-05-04 11:56 44.80222 11.61459 29056 ft 390 kts 162°
2026-05-04 11:57 44.77598 11.62504 29627 ft 386 kts 173°
2026-05-04 11:57 44.74946 11.63075 30171 ft 385 kts 174°
2026-05-04 11:57 44.72293 11.63578 30636 ft 384 kts 175°
2026-05-04 11:57 44.69639 11.64080 31055 ft 385 kts 174°
2026-05-04 11:58 44.67021 11.64591 31060 ft 386 kts 174°
2026-05-04 11:58 44.61686 11.65678 31078 ft 384 kts 174°
2026-05-04 11:59 44.56432 11.66765 31098 ft 385 kts 174°
2026-05-04 11:59 44.51116 11.67845 31097 ft 386 kts 174°
2026-05-04 12:00 44.45801 11.68907 31092 ft 387 kts 174°
2026-05-04 12:00 44.40477 11.69972 31098 ft 387 kts 174°
2026-05-04 12:01 44.35142 11.71038 31101 ft 387 kts 174°
2026-05-04 12:02 44.16537 11.74749 31106 ft 385 kts 174°
2026-05-04 12:03 44.11240 11.75804 31106 ft 384 kts 174°
2026-05-04 12:03 44.05941 11.76860 31107 ft 384 kts 174°
2026-05-04 12:04 44.00653 11.77910 31105 ft 384 kts 174°
2026-05-04 12:04 43.95377 11.78957 31124 ft 383 kts 174°
2026-05-04 12:05 43.90133 11.79995 31125 ft 382 kts 174°
2026-05-04 12:05 43.84836 11.81051 31131 ft 381 kts 174°
2026-05-04 12:06 43.79617 11.82097 31132 ft 381 kts 174°
2026-05-04 12:06 43.74345 11.83422 31134 ft 384 kts 169°
2026-05-04 12:07 43.69137 11.85121 31133 ft 386 kts 169°
2026-05-04 12:07 43.63940 11.86834 31129 ft 387 kts 169°
2026-05-04 12:08 43.58692 11.88530 31138 ft 388 kts 169°
2026-05-04 12:08 43.53427 11.90212 30937 ft 391 kts 169°
2026-05-04 12:09 43.50794 11.91049 30691 ft 385 kts 169°
2026-05-04 12:09 43.48188 11.91879 30320 ft 384 kts 169°
2026-05-04 12:09 43.45594 11.92702 29929 ft 381 kts 169°
2026-05-04 12:09 43.43018 11.93519 29526 ft 378 kts 169°
2026-05-04 12:10 43.40466 11.94327 29119 ft 375 kts 169°
2026-05-04 12:10 43.37926 11.95130 28747 ft 372 kts 169°
2026-05-04 12:10 43.35410 11.95925 28358 ft 370 kts 169°
2026-05-04 12:10 43.32909 11.96715 27964 ft 368 kts 169°
2026-05-04 12:11 43.30418 11.97501 27585 ft 366 kts 169°
2026-05-04 12:11 43.27947 11.98280 27213 ft 364 kts 169°
2026-05-04 12:11 43.25480 11.99057 26841 ft 362 kts 169°
2026-05-04 12:11 43.23033 11.99828 26446 ft 361 kts 169°
2026-05-04 12:12 43.20584 12.00598 26078 ft 359 kts 169°
2026-05-04 12:12 43.18157 12.01361 25701 ft 358 kts 169°
2026-05-04 12:12 43.15733 12.02121 25333 ft 357 kts 170°
2026-05-04 12:12 43.13320 12.02878 24970 ft 356 kts 170°
2026-05-04 12:13 43.10909 12.03634 24593 ft 355 kts 170°
2026-05-04 12:14 42.94211 12.08852 21892 ft 347 kts 171°
2026-05-04 12:15 42.91866 12.09583 21528 ft 346 kts 171°
2026-05-04 12:15 42.89522 12.10313 21173 ft 344 kts 171°
2026-05-04 12:15 42.87195 12.11038 20807 ft 343 kts 171°
2026-05-04 12:15 42.84877 12.11758 20458 ft 342 kts 171°
2026-05-04 12:16 42.82558 12.12478 20082 ft 341 kts 171°
2026-05-04 12:16 42.80239 12.13197 19737 ft 340 kts 171°
2026-05-04 12:16 42.77933 12.13913 19375 ft 340 kts 171°
2026-05-04 12:16 42.75623 12.14629 19018 ft 340 kts 171°
2026-05-04 12:17 42.73325 12.15339 18652 ft 340 kts 171°
2026-05-04 12:17 42.71016 12.16054 18252 ft 340 kts 170°
2026-05-04 12:17 42.68774 12.17142 17842 ft 345 kts 155°
2026-05-04 12:17 42.66704 12.18769 17478 ft 344 kts 152°
2026-05-04 12:18 42.64660 12.20453 17102 ft 342 kts 152°
2026-05-04 12:18 42.62633 12.22125 16750 ft 340 kts 152°
2026-05-04 12:18 42.60613 12.23770 16389 ft 337 kts 152°
2026-05-04 12:18 42.58626 12.25373 16040 ft 334 kts 152°
2026-05-04 12:19 42.56637 12.26964 15696 ft 328 kts 152°
2026-05-04 12:19 42.54701 12.28507 15356 ft 318 kts 152°
2026-05-04 12:19 42.52825 12.29999 15040 ft 308 kts 152°
2026-05-04 12:19 42.50997 12.31451 14715 ft 300 kts 152°
2026-05-04 12:20 42.49215 12.32862 14416 ft 292 kts 152°
2026-05-04 12:20 42.47489 12.34229 14112 ft 285 kts 151°
2026-05-04 12:20 42.45781 12.35586 13800 ft 284 kts 151°
2026-05-04 12:20 42.44076 12.36944 13471 ft 284 kts 151°
2026-05-04 12:21 42.42375 12.38296 13141 ft 283 kts 151°
2026-05-04 12:21 42.40675 12.39648 12822 ft 283 kts 151°
2026-05-04 12:21 42.39002 12.40976 12687 ft 276 kts 151°
2026-05-04 12:21 42.37365 12.42277 12561 ft 269 kts 151°
2026-05-04 12:22 42.35744 12.43486 12357 ft 264 kts 159°
2026-05-04 12:22 42.34031 12.44276 12085 ft 263 kts 165°
2026-05-04 12:22 42.32279 12.44958 11877 ft 259 kts 165°
2026-05-04 12:22 42.30562 12.45640 11931 ft 251 kts 164°
2026-05-04 12:23 42.28857 12.46336 11400 ft 264 kts 164°
2026-05-04 12:23 42.27087 12.47072 10997 ft 268 kts 163°
2026-05-04 12:23 42.25321 12.47769 10854 ft 261 kts 171°
2026-05-04 12:23 42.23545 12.47625 10725 ft 254 kts 198°
2026-05-04 12:24 42.22027 12.46470 10509 ft 253 kts 220°
2026-05-04 12:24 42.20945 12.44614 10269 ft 255 kts 242°
2026-05-04 12:24 42.20308 12.42367 10016 ft 257 kts 250°
2026-05-04 12:24 42.19784 12.40053 9713 ft 258 kts 251°
2026-05-04 12:25 42.19386 12.37697 9430 ft 261 kts 266°
2026-05-04 12:25 42.19746 12.35325 9179 ft 265 kts 295°
2026-05-04 12:25 42.20931 12.33438 9053 ft 262 kts 324°
2026-05-04 12:25 42.22572 12.32424 8939 ft 260 kts 342°
2026-05-04 12:26 42.24304 12.31708 8837 ft 261 kts 342°
2026-05-04 12:26 42.26056 12.30997 8736 ft 264 kts 342°
2026-05-04 12:26 42.27822 12.30278 8617 ft 266 kts 342°
2026-05-04 12:26 42.29585 12.29550 8485 ft 265 kts 342°
2026-05-04 12:27 42.31348 12.28812 8391 ft 264 kts 342°
2026-05-04 12:27 42.33097 12.28076 8276 ft 264 kts 342°
2026-05-04 12:27 42.34258 12.27588 8196 ft 263 kts 342°
2026-05-04 12:27 42.36004 12.26850 8090 ft 262 kts 341°
2026-05-04 12:28 42.37743 12.26113 7971 ft 260 kts 342°
2026-05-04 12:28 42.39459 12.25341 7872 ft 259 kts 333°
2026-05-04 12:28 42.40815 12.23812 7755 ft 254 kts 300°
2026-05-04 12:28 42.41440 12.20888 7618 ft 244 kts 265°
2026-05-04 12:29 42.41284 12.19380 7539 ft 239 kts 253°
2026-05-04 12:29 42.40816 12.17250 7497 ft 236 kts 248°
2026-05-04 12:29 42.40295 12.15113 7365 ft 241 kts 248°
2026-05-04 12:29 42.39766 12.12959 7289 ft 242 kts 245°
2026-05-04 12:30 42.38823 12.11152 7151 ft 233 kts 213°
2026-05-04 12:30 42.37382 12.10321 7058 ft 222 kts 187°
2026-05-04 12:30 42.35882 12.10369 6967 ft 215 kts 167°
2026-05-04 12:30 42.34450 12.10918 6884 ft 214 kts 162°
2026-05-04 12:31 42.33027 12.11541 6788 ft 215 kts 162°
2026-05-04 12:31 42.31595 12.12165 6687 ft 219 kts 162°
2026-05-04 12:31 42.30129 12.12805 6405 ft 224 kts 162°
2026-05-04 12:31 42.28632 12.13450 6113 ft 226 kts 163°
2026-05-04 12:32 42.27146 12.14084 5826 ft 227 kts 163°
2026-05-04 12:32 42.24179 12.15343 5206 ft 224 kts 163°
2026-05-04 12:32 42.22693 12.15972 4919 ft 224 kts 163°
2026-05-04 12:33 42.21205 12.16602 4663 ft 224 kts 163°
2026-05-04 12:33 42.19725 12.17228 4413 ft 219 kts 163°
2026-05-04 12:33 42.18287 12.17835 4238 ft 215 kts 163°
2026-05-04 12:33 42.16875 12.18431 4046 ft 209 kts 163°
2026-05-04 12:34 42.15517 12.18994 3817 ft 199 kts 166°
2026-05-04 12:34 42.14174 12.18995 3569 ft 190 kts 189°
2026-05-04 12:34 42.12905 12.18630 3332 ft 184 kts 191°
2026-05-04 12:34 42.11666 12.18247 3112 ft 182 kts 191°
2026-05-04 12:35 42.10434 12.17869 2887 ft 180 kts 191°
2026-05-04 12:35 42.09224 12.17501 2678 ft 177 kts 192°
2026-05-04 12:35 42.08016 12.17136 2635 ft 180 kts 191°
2026-05-04 12:35 42.06775 12.16898 2582 ft 180 kts 172°
2026-05-04 12:36 42.05597 12.17345 2609 ft 175 kts 162°
2026-05-04 12:36 42.04425 12.17837 2592 ft 176 kts 162°
2026-05-04 12:36 42.03258 12.18330 2600 ft 175 kts 163°
2026-05-04 12:36 42.02101 12.18820 2612 ft 174 kts 163°
2026-05-04 12:37 42.00934 12.19306 2610 ft 176 kts 162°
2026-05-04 12:37 41.99753 12.19794 2605 ft 177 kts 163°
2026-05-04 12:37 41.98611 12.20268 2601 ft 167 kts 163°
2026-05-04 12:37 41.97526 12.20721 2600 ft 161 kts 163°
2026-05-04 12:38 41.96448 12.21173 2547 ft 163 kts 163°
2026-05-04 12:38 41.95344 12.21635 2353 ft 167 kts 163°
2026-05-04 12:38 41.94278 12.22083 2151 ft 152 kts 164°
2026-05-04 12:38 41.93328 12.22485 1942 ft 138 kts 164°
2026-05-04 12:39 41.92436 12.22857 1754 ft 128 kts 165°
2026-05-04 12:39 41.91596 12.23210 1602 ft 131 kts 165°
2026-05-04 12:39 41.90725 12.23576 1439 ft 132 kts 164°
2026-05-04 12:39 41.89864 12.23938 1248 ft 129 kts 163°
2026-05-04 12:40 41.89007 12.24298 1065 ft 129 kts 165°
2026-05-04 12:40 41.88150 12.24657 789 ft 130 kts 165°
2026-05-04 12:40 41.87289 12.25018 615 ft 129 kts 166°
2026-05-04 12:40 41.86415 12.25385 438 ft 133 kts 163°
2026-05-04 12:41 41.85531 12.25756 251 ft 132 kts 163°
2026-05-04 12:41 41.84667 12.26120 83 ft 128 kts 163°
2026-05-04 12:41 41.83881 12.26449 17 ft 99 kts 163°
2026-05-04 12:41 41.83396 12.26647 12 ft 47 kts 170°
2026-05-04 12:42 41.83129 12.26629 9 ft 27 kts 193°
2026-05-04 12:42 41.82953 12.26574 11 ft 25 kts 191°
2026-05-04 12:42 41.82787 12.26584 12 ft 23 kts 166°
2026-05-04 12:42 41.82635 12.26647 10 ft 22 kts 162°